Wind_Speed
68 64 62 69 67 61 58 53 51 49 45 39 41 45 46 43 40 37 37 35 33 32 30 26 24 23 22 22 22 22 24 26 29 31 33 35 37 37 36 37 39 38 37 37
70 66 69 66 66 62 61 58 57 51 46 40 42 45 45 42 42 39 38 38 36 36 31 30 28 24 26 27 24 24 26 26 28 30 32 35 37 39 40 41 40 39 39 40
71 71 72 72 67 64 63 60 61 53 47 44 45 42 43 44 43 41 45 42 41 39 35 33 32 25 24 29 27 26 25 26 28 31 33 35 34 35 37 39 40 40 41 42
75 69 74 73 69 68 66 63 62 57 53 51 46 37 45 47 45 44 49 45 45 41 40 40 37 31 24 28 31 30 28 30 31 31 33 37 37 39 40 40 40 41 42 43
73 75 76 73 71 71 68 66 65 63 59 53 49 47 45 49 45 52 50 49 48 46 44 46 45 40 33 26 31 33 35 36 33 32 32 35 38 40 40 41 42 43 45 45
74 74 74 73 73 75 70 71 72 70 67 59 58 55 36 50 50 57 53 54 52 50 47 49 52 49 41 35 31 36 38 40 38 38 38 37 39 40 42 42 43 45 47 49
80 79 80 79 78 78 76 76 78 77 73 63 67 59 36 43 55 58 58 60 58 54 53 55 58 55 46 40 36 34 39 41 44 45 44 41 44 45 46 46 47 48 49 49
88 86 84 85 82 85 85 83 81 79 82 73 68 54 43 47 54 61 63 64 63 60 59 62 62 62 58 48 41 38 38 42 45 47 46 46 46 48 50 51 51 52 52 53
92 89 86 87 89 90 87 85 83 90 86 82 71 55 51 51 56 56 67 68 64 64 65 68 70 69 66 63 57 53 45 42 45 46 47 51 52 53 53 53 54 57 58 57
95 90 89 90 93 91 89 88 90 91 90 88 72 66 57 60 61 65 64 68 70 70 72 75 77 75 72 73 69 64 61 57 54 54 56 57 58 60 58 59 59 59 61 62
99 98 96 94 93 94 96 95 94 95 94 93 83 74 65 64 63 67 69 70 73 74 77 80 81 80 78 77 76 74 69 68 66 62 61 63 65 61 59 60 61 62 63 66
107 107 103 99 98 100 99 99 99 98 92 96 94 79 71 73 73 74 76 76 78 79 81 83 85 85 83 82 79 77 78 75 73 71 68 65 67 64 64 62 64 65 66 68
110 110 110 108 107 108 106 103 102 101 104 104 103 91 73 82 82 80 80 80 82 84 86 88 90 89 87 85 81 79 80 76 70 69 69 69 69 69 68 67 67 69 70 71
115 116 115 112 109 109 107 107 108 109 111 103 106 94 80 82 86 86 85 87 87 86 89 93 91 92 88 85 83 81 80 78 76 72 71 72 73 72 71 72 74 76 75 76
118 120 120 119 115 116 112 111 111 113 111 114 104 109 91 87 92 92 94 93 92 93 94 95 96 93 90 89 85 84 81 79 80 78 76 76 74 74 74 77 79 80 81 80
116 122 121 115 116 125 124 120 118 114 112 114 107 109 95 93 98 102 99 98 98 100 98 99 100 101 97 94 90 84 85 83 82 82 81 82 82 82 82 81 82 84 86 84
98 101 108 115 117 122 125 117 121 118 113 114 118 107 106 105 100 99 101 104 102 99 99 103 102 101 98 94 95 93 88 87 87 88 88 88 87 85 86 87 88 90 88 87
100 99 100 99 108 121 114 109 109 110 109 103 103 104 109 117 113 109 108 111 106 107 104 104 106 105 104 103 101 100 100 100 94 93 94 93 92 93 91 91 92 93 95 97
114 116 114 113 106 108 102 93 100 105 101 103 100 95 86 87 97 97 98 109 112 112 109 112 111 104 102 102 101 100 100 96 95 94 94 95 96 98 99 100 100 98 98 97
125 125 129 124 119 113 102 104 107 111 116 103 105 98 94 93 93 82 93 89 89 89 89 89 93 97 97 99 101 102 101 100 100 99 96 96 97 99 100 101 101 98 98 98
134 134 134 131 131 125 113 109 115 121 112 110 108 109 109 109 107 99 96 94 96 98 102 99 96 97 100 101 100 99 97 95 95 93 93 91 92 91 92 93 94 94 95 96
137 139 138 137 140 135 122 124 127 128 123 120 116 116 121 121 120 117 111 106 105 102 103 104 103 102 103 102 102 101 100 100 98 95 94 94 93 93 90 93 93 91 94 95
137 139 141 141 136 131 127 128 132 136 136 135 134 129 129 126 122 119 115 113 113 107 105 106 108 111 109 105 103 102 102 101 100 98 96 95 96 96 97 98 99 100 102 104
124 129 133 133 127 132 131 128 125 133 138 135 136 136 133 126 124 123 122 122 119 116 114 111 111 112 112 110 110 111 110 111 111 108 106 106 105 103 106 105 106 108 110 111
114 118 116 124 115 123 122 122 125 127 128 120 119 122 122 122 120 117 116 117 116 113 115 115 116 117 115 114 115 114 114 113 113 113 111 111 111 111 109 109 110 110 112 113
107 113 121 114 112 121 112 117 121 121 122 121 115 113 112 113 113 113 113 114 115 115 117 115 113 113 113 114 113 111 110 112 113 112 112 110 112 112 113 112 113 113 112 112
Wind_Direction
240 240 239 243 248 248 249 249 251 256 260 265 276 287 294 295 286 282 279 277 279 280 283 280 277 281 284 285 285 285 282 277 276 274 275 278 278 278 276 276 279 280 282 282
237 237 239 242 243 245 248 249 251 253 257 262 273 284 290 291 283 279 276 275 276 278 282 285 283 288 288 285 283 283 282 284 281 279 278 275 276 278 279 276 274 277 278 277
234 234 237 239 240 243 246 249 251 252 254 260 272 277 289 287 279 277 276 276 275 281 285 281 282 288 290 288 286 280 278 278 282 281 283 282 282 282 280 283 285 282 280 279
235 233 238 239 239 241 245 248 252 255 256 259 263 269 285 278 277 274 274 276 275 279 279 279 277 275 278 284 285 284 282 281 280 281 281 282 284 281 283 282 282 281 280 279
233 233 237 239 243 246 248 251 253 255 254 257 264 270 272 276 272 271 273 273 273 275 277 277 279 277 273 272 278 283 287 285 285 283 281 283 283 284 285 285 285 283 282 281
237 237 240 242 243 247 248 250 252 253 256 257 264 270 260 271 272 271 273 273 271 272 274 276 277 275 273 268 269 280 283 285 285 282 284 287 287 287 284 285 285 283 283 283
239 238 240 242 244 248 249 248 252 254 257 261 265 264 256 257 266 271 273 273 274 274 275 277 278 280 278 270 265 270 279 283 283 284 285 286 288 287 286 285 285 284 287 287
242 242 244 244 244 246 248 249 254 260 261 262 265 266 256 250 256 264 270 273 275 278 281 282 283 284 285 281 275 272 273 279 287 287 286 284 286 286 283 283 285 286 287 287
244 243 243 243 244 247 249 252 254 260 263 263 266 264 258 255 253 255 263 267 272 275 276 276 278 278 280 281 279 280 278 282 285 285 283 284 285 285 284 284 282 283 284 287
237 242 247 247 249 252 254 254 257 261 261 263 261 258 259 256 254 256 256 263 267 269 270 273 274 275 276 278 280 280 282 282 282 280 280 281 282 283 286 283 281 284 285 285
242 240 236 239 243 248 251 254 257 258 260 262 260 259 258 259 259 259 259 258 260 262 265 267 269 271 272 273 275 277 278 281 283 282 276 277 279 281 283 282 282 284 284 284
246 246 244 241 244 246 248 251 251 252 255 256 259 254 257 257 257 258 259 260 261 259 260 262 266 268 270 271 273 276 279 280 281 282 278 276 276 279 281 285 282 282 283 282
245 247 246 246 245 246 249 252 254 255 255 255 257 258 255 256 255 255 257 257 257 259 261 262 265 267 270 272 275 275 277 279 279 280 278 277 276 278 283 283 279 280 281 284
249 248 248 248 249 250 253 253 254 255 256 260 260 261 258 260 261 262 261 261 261 262 262 265 268 268 271 273 274 274 276 278 279 278 277 277 278 280 279 279 280 281 281 283
250 249 250 250 252 252 252 254 255 257 259 260 260 262 261 263 264 263 263 263 263 264 266 267 269 270 271 271 273 275 275 278 279 280 278 277 276 277 278 280 279 280 281 281
249 251 251 252 255 255 253 253 254 258 260 261 263 262 265 263 262 263 265 265 264 266 268 270 269 271 272 273 275 275 277 278 278 278 278 278 278 279 280 279 279 280 282 282
253 254 255 254 254 254 255 257 256 256 258 262 262 262 262 264 266 265 266 268 268 269 270 271 271 272 274 274 275 275 275 276 278 279 278 278 278 277 278 279 279 280 280 280
255 255 256 259 259 257 255 255 258 260 260 263 265 265 262 261 263 265 266 266 267 268 270 269 270 272 273 273 274 275 275 276 276 277 276 276 275 275 276 277 278 279 280 280
263 264 266 264 262 259 252 258 262 260 256 260 263 265 264 262 265 265 269 267 266 267 270 272 270 270 270 271 270 271 272 273 274 273 274 273 273 274 275 276 277 277 277 278
260 262 263 265 266 265 259 260 261 263 263 264 265 265 264 263 265 264 262 270 268 267 267 269 268 268 269 270 270 271 272 272 273 273 271 271 272 273 274 275 276 275 276 276
255 258 261 264 265 266 266 267 267 264 263 263 267 270 271 271 271 265 267 268 267 265 269 268 266 268 268 267 267 268 269 269 270 270 270 269 269 269 270 270 270 272 274 275
254 255 257 261 262 266 266 266 266 268 269 271 270 270 273 276 277 275 273 272 272 270 269 269 270 274 273 271 270 268 267 267 268 269 268 267 268 268 269 268 271 272 276 276
255 256 257 258 260 262 266 264 263 267 267 267 267 269 272 272 272 272 272 274 273 271 270 271 274 277 276 275 275 275 273 270 267 266 265 265 265 266 268 269 274 276 278 282
254 255 258 259 262 264 264 265 265 265 266 266 268 270 269 268 268 269 269 270 270 271 271 271 271 271 272 273 273 273 274 275 276 277 276 277 277 276 275 275 276 277 279 281
254 256 258 257 258 259 259 260 261 262 263 263 264 265 266 266 266 267 268 269 269 269 269 270 271 272 272 271 270 271 272 273 274 274 274 274 274 275 275 275 275 275 276 278
257 257 256 259 259 259 258 259 260 261 262 263 262 262 264 265 266 266 267 267 268 270 271 271 270 271 271 270 271 271 271 271 271 272 272 273 274 275 275 277 277 276 277 278
Height
10718 10724 10728 10724 10734 10741 10741 10743 10744 10748 10754 10760 10762 10765 10769 10770 10769 10771 10769 10769 10768 10768 10769 10769 10768 10766 10766 10765 10764 10763 10762 10760 10758 10757 10756 10754 10752 10752 10750 10748 10746 10746 10746 10744
10705 10715 10710 10719 10723 10729 10731 10732 10733 10740 10746 10751 10754 10756 10761 10763 10761 10763 10762 10761 10761 10761 10764 10764 10763 10762 10760 10759 10758 10757 10755 10754 10752 10751 10749 10747 10746 10744 10743 10741 10739 10738 10737 10735
10692 10699 10701 10705 10713 10717 10717 10720 10720 10730 10737 10742 10745 10750 10754 10753 10754 10755 10750 10753 10753 10753 10756 10757 10756 10756 10755 10752 10751 10750 10749 10747 10744 10743 10741 10739 10738 10737 10735 10733 10733 10731 10728 10725
10681 10690 10689 10693 10699 10700 10704 10709 10710 10720 10727 10730 10735 10747 10744 10743 10746 10745 10739 10744 10743 10746 10746 10746 10748 10750 10750 10747 10744 10743 10742 10739 10737 10736 10733 10731 10731 10728 10726 10725 10723 10722 10718 10716
10671 10671 10672 10681 10687 10689 10698 10698 10700 10705 10711 10720 10727 10736 10736 10732 10737 10729 10731 10733 10735 10736 10737 10736 10737 10739 10740 10741 10738 10735 10733 10730 10730 10729 10726 10724 10722 10721 10718 10715 10713 10711 10708 10705
10657 10661 10664 10668 10672 10674 10686 10685 10683 10688 10694 10712 10713 10723 10740 10723 10723 10716 10719 10719 10723 10726 10727 10726 10724 10725 10729 10731 10731 10728 10725 10722 10721 10719 10717 10715 10713 10712 10708 10705 10702 10700 10697 10695
10637 10645 10647 10651 10656 10661 10668 10668 10665 10670 10679 10703 10699 10711 10735 10727 10712 10707 10706 10703 10708 10713 10715 10712 10711 10712 10715 10718 10720 10720 10718 10715 10712 10710 10708 10706 10703 10701 10697 10695 10692 10690 10686 10683
10622 10630 10638 10639 10644 10639 10643 10647 10655 10662 10661 10682 10690 10709 10718 10716 10711 10702 10696 10693 10694 10699 10700 10696 10697 10698 10698 10701 10705 10707 10708 10705 10702 10700 10697 10694 10692 10690 10686 10684 10682 10678 10675 10672
10599 10612 10621 10625 10622 10623 10634 10637 10643 10635 10649 10657 10678 10700 10702 10702 10698 10700 10688 10685 10687 10687 10686 10683 10684 10685 10686 10686 10689 10691 10694 10695 10692 10689 10686 10682 10679 10676 10674 10671 10669 10666 10663 10660
10578 10596 10605 10611 10610 10614 10620 10627 10625 10625 10632 10634 10666 10673 10687 10683 10684 10682 10685 10679 10676 10675 10673 10668 10667 10670 10674 10673 10674 10676 10678 10679 10679 10677 10673 10669 10664 10661 10660 10657 10653 10652 10649 10647
10564 10569 10584 10588 10597 10598 10597 10605 10611 10607 10612 10617 10637 10656 10667 10668 10670 10668 10666 10666 10664 10662 10659 10655 10655 10656 10657 10660 10661 10662 10664 10664 10664 10664 10659 10653 10649 10647 10645 10642 10640 10638 10635 10630
10539 10549 10564 10572 10577 10574 10579 10585 10586 10587 10599 10591 10598 10639 10650 10648 10648 10648 10646 10647 10646 10645 10644 10640 10638 10638 10640 10643 10646 10648 10648 10649 10649 10646 10641 10637 10633 10631 10629 10628 10625 10621 10618 10614
10523 10526 10537 10543 10557 10559 10563 10570 10567 10568 10561 10573 10581 10614 10624 10626 10627 10626 10624 10626 10628 10626 10625 10623 10620 10621 10624 10628 10633 10634 10629 10628 10631 10629 10622 10619 10615 10614 10614 10610 10606 10603 10600 10597
10501 10502 10511 10528 10534 10537 10546 10548 10547 10544 10541 10570 10563 10595 10614 10611 10601 10600 10602 10606 10610 10612 10608 10602 10603 10604 10607 10611 10612 10612 10611 10609 10609 10608 10605 10599 10597 10596 10595 10590 10586 10583 10581 10577
10473 10480 10487 10504 10512 10515 10523 10522 10522 10522 10539 10535 10565 10553 10596 10589 10576 10577 10577 10581 10586 10588 10587 10585 10581 10584 10587 10588 10594 10593 10593 10589 10587 10588 10586 10581 10580 10577 10576 10572 10568 10564 10561 10557
10453 10460 10461 10482 10487 10483 10485 10494 10509 10518 10521 10512 10534 10534 10560 10557 10553 10550 10555 10561 10563 10560 10563 10562 10561 10557 10565 10567 10567 10571 10570 10570 10568 10567 10565 10561 10557 10555 10552 10551 10547 10542 10538 10535
10429 10439 10440 10450 10458 10450 10444 10487 10490 10493 10498 10503 10495 10523 10524 10527 10527 10527 10531 10529 10537 10545 10542 10539 10537 10540 10540 10545 10543 10545 10546 10545 10545 10543 10541 10538 10536 10534 10529 10527 10523 10518 10515 10512
10413 10417 10413 10423 10425 10411 10450 10458 10468 10469 10476 10477 10465 10482 10495 10496 10491 10508 10513 10500 10512 10511 10515 10514 10517 10517 10516 10519 10520 10519 10520 10521 10521 10519 10517 10514 10512 10508 10504 10501 10498 10495 10490 10487
10387 10385 10381 10380 10400 10404 10421 10454 10444 10435 10444 10443 10444 10449 10467 10470 10457 10491 10484 10465 10481 10486 10489 10486 10488 10488 10490 10491 10493 10492 10492 10492 10493 10493 10493 10489 10486 10481 10478 10475 10472 10468 10463 10460
10357 10358 10350 10364 10360 10371 10414 10432 10421 10408 10392 10427 10413 10422 10430 10438 10440 10468 10441 10454 10455 10456 10460 10463 10460 10459 10462 10463 10464 10464 10465 10466 10466 10465 10465 10464 10460 10455 10452 10449 10446 10441 10437 10433
10328 10331 10326 10334 10329 10340 10383 10402 10387 10357 10380 10386 10396 10393 10398 10401 10406 10420 10424 10430 10432 10431 10428 10430 10433 10435 10434 10435 10436 10437 10438 10438 10437 10437 10437 10435 10432 10429 10427 10424 10419 10415 10412 10407
10302 10301 10305 10311 10308 10315 10356 10359 10349 10347 10349 10354 10361 10368 10365 10371 10379 10380 10390 10397 10401 10406 10402 10400 10403 10402 10401 10401 10403 10405 10407 10407 10407 10407 10406 10404 10403 10401 10398 10396 10393 10389 10384 10379
10262 10276 10277 10275 10286 10299 10317 10323 10326 10320 10319 10327 10329 10334 10334 10342 10347 10351 10356 10362 10366 10373 10375 10372 10371 10370 10371 10372 10371 10370 10371 10373 10374 10374 10374 10373 10373 10372 10369 10366 10362 10358 10353 10349
10240 10247 10240 10252 10276 10279 10280 10284 10289 10279 10275 10292 10300 10305 10301 10309 10318 10320 10321 10327 10333 10338 10341 10341 10341 10342 10342 10342 10341 10340 10340 10340 10341 10342 10343 10342 10341 10340 10337 10334 10331 10328 10323 10319
10221 10218 10231 10219 10252 10239 10247 10251 10247 10238 10236 10257 10271 10271 10270 10271 10282 10285 10290 10293 10299 10306 10306 10307 10306 10306 10308 10308 10307 10308 10309 10310 10311 10309 10309 10308 10306 10305 10303 10301 10298 10295 10291 10288
10204 10196 10182 10201 10213 10195 10221 10218 10210 10211 10211 10217 10232 10242 10245 10240 10246 10251 10258 10262 10263 10266 10267 10268 10272 10273 10273 10273 10274 10276 10278 10276 10275 10276 10276 10276 10274 10271 10270 10268 10264 10261 10259 10254